Location: Córrego Montividiu
(13.2496°S, 48.8603°W)
Time: 11:56:53
(UTC+00:00)

USA 238 DEB - Pass Details

Date: 11 March 2026
Orbit: 883 x 1328 km, 63.4° (Epoch: 10 January)

Event Time Altitude Azimuth Distance (km) Brightness Sun altitude
Rises 21:57:03 0° 207° (SSW) 3,608 7.0 -6.9°
Reaches altitude 10° 21:59:39 10° 208° (SSW) 2,619 6.3 -7.5°
Maximum altitude 22:05:39 77° 293° (WNW) 914 3.5 -9.0°
Drops below altitude 10° 22:11:27 10° 19° (NNE) 2,534 5.4 -10.4°
Sets 22:13:56 0° 20° (NNE) 3,484 6.1 -11.0°
